RH
91 93 92 89 86 97 80 74 81 61 72 82 84 94 89 79 72 64 55 56 60 60 62 64 63 53 54 46 44 51 53 65 80 68 58 54 53 53 44 49 69 62 57 31
90 92 92 90 85 98 99 77 76 57 80 78 78 68 70 73 65 64 55 56 54 54 58 63 57 58 52 49 46 50 48 66 88 85 66 60 65 58 52 54 62 77 49 33
94 93 92 89 84 91 91 80 86 70 71 76 71 76 73 69 66 59 52 55 49 50 53 51 58 59 61 51 47 58 46 58 67 54 70 63 80 65 57 58 69 53 44 36
94 93 91 88 82 75 88 84 90 78 87 77 76 78 76 71 70 65 54 54 51 48 56 56 58 60 59 55 60 52 50 91 80 58 60 70 66 65 65 77 55 60 41 46
96 92 91 86 78 71 82 85 86 71 79 77 73 72 72 75 71 75 58 56 54 50 50 45 57 55 55 55 60 53 56 92 85 81 69 72 80 64 61 62 58 55 49 50
88 95 92 88 83 59 81 85 87 91 78 74 70 73 72 72 71 68 71 61 59 60 61 60 54 46 44 47 54 58 59 87 83 76 64 66 74 65 63 62 59 55 62 44
95 89 84 94 85 67 76 90 98 78 76 73 74 77 82 77 77 77 69 67 60 61 52 50 46 48 52 51 55 47 61 76 83 81 68 77 52 51 51 57 51 53 48 45
95 88 83 91 91 75 65 70 88 81 66 67 67 75 86 77 66 71 75 74 73 62 60 58 60 61 61 68 66 56 50 61 85 82 72 53 49 63 60 62 58 48 50 43
94 91 91 89 90 86 78 68 63 81 80 57 66 66 69 86 76 65 74 75 72 65 68 65 71 65 56 73 77 64 61 54 60 70 78 59 46 60 56 54 68 52 48 48
88 93 92 97 96 88 87 70 70 76 71 51 68 67 68 71 88 82 71 78 78 68 72 71 69 65 54 72 79 88 78 80 76 73 68 50 38 53 57 67 60 49 53 53
88 91 92 94 96 92 87 84 77 73 76 61 55 65 64 53 63 84 80 81 82 85 85 78 72 66 64 67 58 63 66 75 82 74 78 79 47 58 54 49 51 49 53 56
91 89 92 96 99 96 92 88 79 78 80 67 60 54 51 50 54 66 69 92 84 73 79 75 73 72 73 66 72 60 73 57 56 54 52 40 49 50 51 54 54 54 57 54
96 92 93 92 94 98 97 90 83 92 99 85 73 71 67 74 64 57 62 67 79 86 85 80 78 74 69 77 66 66 65 58 61 64 47 50 47 49 51 53 55 53 52 54
92 89 98 91 93 97 95 95 87 91 92 92 78 71 67 52 59 71 65 54 64 69 94 92 82 74 66 68 59 60 60 64 60 60 57 57 55 52 51 56 57 57 57 58
87 93 93 95 99 87 92 92 94 94 96 86 74 69 66 64 66 71 72 67 66 76 92 100 92 74 73 70 68 68 63 65 66 59 52 48 51 54 62 66 65 62 64 63
91 92 93 98 82 96 92 84 79 92 98 95 93 69 66 62 69 71 71 70 68 74 83 95 95 72 66 78 73 55 56 58 56 55 56 60 59 61 64 62 60 58 61 57
91 92 94 92 88 96 88 77 74 80 94 99 87 81 55 70 80 75 71 67 67 66 76 94 97 84 72 80 69 51 55 56 63 56 58 60 63 63 63 62 62 66 65 60
91 92 88 78 89 94 94 89 93 94 99 90 92 88 73 76 92 74 68 76 71 77 81 88 96 95 83 87 66 68 63 59 58 61 61 61 60 62 66 69 72 66 63 59
89 78 71 92 96 88 81 87 95 100 98 93 88 91 88 94 98 91 74 69 79 65 97 94 94 98 97 72 71 67 62 61 63 68 66 64 70 72 72 73 70 71 67 63
80 66 88 91 85 79 81 98 98 100 100 99 96 93 94 98 99 98 93 97 95 98 95 93 97 98 82 72 70 64 66 67 71 71 78 89 93 85 78 80 75 73 72 68
83 86 84 77 70 86 86 96 99 92 93 94 89 97 96 94 100 100 97 100 100 100 99 100 96 83 83 73 72 71 70 70 71 72 72 72 75 82 87 87 79 79 78 74
97 94 88 92 90 92 95 92 91 93 91 100 100 100 99 99 97 98 93 100 99 98 94 96 95 82 83 73 76 75 72 72 72 70 69 74 83 90 93 85 74 74 82 83
89 95 93 88 90 92 91 93 90 92 99 96 96 95 99 96 97 97 96 99 94 93 99 86 78 85 81 79 78 78 75 74 71 73 73 72 82 93 98 95 89 70 67 67
86 86 67 88 87 87 88 84 90 86 92 86 88 96 100 98 99 92 100 100 96 96 90 77 83 83 79 77 80 77 80 78 76 77 77 77 77 88 99 100 100 99 90 74
84 81 60 88 79 88 88 92 96 89 90 92 93 94 98 99 100 100 98 95 87 74 74 76 86 83 78 73 75 79 76 74 76 80 78 77 78 75 74 91 95 92 87 78
91 93 96 82 93 88 90 92 93 88 91 92 97 98 98 99 100 100 95 92 83 79 90 86 81 79 72 67 70 76 75 66 69 81 84 84 81 79 77 75 76 87 96 92
98 94 85 85 92 89 82 75 79 81 90 95 96 97 99 98 100 97 90 86 84 88 91 87 81 80 76 64 69 72 63 65 71 80 86 89 88 83 81 80 82 80 88 100
Wind_Speed
26 29 31 32 33 32 10 3 0 4 2 2 2 2 2 2 2 1 2 2 3 4 3 4 2 3 1 3 3 3 2 4 5 2 2 2 2 3 5 3 4 0 2 3
24 27 30 32 32 26 8 3 2 5 2 3 3 2 2 1 5 4 2 2 1 1 3 2 2 3 2 4 3 4 5 3 5 2 2 2 5 6 3 4 1 5 3 4
24 27 28 31 32 24 6 2 0 3 3 3 2 1 1 1 1 1 1 2 2 3 3 3 4 3 2 1 1 3 3 2 1 3 3 4 5 10 10 5 4 4 5 1
22 25 26 30 33 20 2 3 2 1 1 3 2 1 2 2 2 1 1 1 1 3 3 3 4 3 3 3 5 2 1 2 1 1 2 3 3 7 13 10 7 6 2 6
19 22 24 28 33 18 5 2 2 2 1 2 1 1 1 2 1 2 1 2 4 2 2 1 6 7 5 3 4 3 1 3 1 1 2 6 7 11 12 15 16 14 15 17
18 20 21 23 27 20 6 5 3 2 2 0 2 1 1 2 3 2 2 0 3 3 2 2 1 2 4 5 7 5 5 5 2 1 1 5 7 16 18 11 9 14 11 9
16 18 18 19 20 23 6 5 4 2 1 2 1 2 3 3 5 3 2 1 2 4 6 8 8 9 7 5 3 4 6 4 1 0 2 4 3 3 4 17 12 16 11 12
14 17 17 16 15 16 12 9 3 3 2 2 1 3 3 8 4 2 2 1 2 2 1 2 4 3 3 2 2 3 2 4 2 2 3 7 3 3 6 8 2 16 16 15
14 15 16 13 12 14 12 10 9 2 3 2 2 2 3 2 3 2 0 2 1 1 0 1 3 4 4 4 4 2 3 3 4 3 3 3 3 3 4 3 3 4 11 11
14 16 14 16 13 10 11 4 7 2 2 2 2 2 1 2 1 3 3 2 2 1 3 4 4 3 1 5 7 5 5 3 9 7 5 6 5 3 4 4 4 6 6 7
13 16 14 14 7 8 8 8 4 2 2 6 4 2 4 3 3 3 3 2 2 1 5 3 3 4 5 4 4 6 9 7 5 6 4 8 6 5 4 4 1 1 3 4
12 13 17 12 13 10 6 4 4 5 4 5 7 14 16 15 8 1 2 3 3 2 4 2 2 3 4 5 4 5 7 6 4 8 5 1 6 1 2 2 4 3 2 2
12 11 13 17 11 10 8 10 8 4 3 6 6 5 8 12 24 18 4 3 4 1 4 2 1 5 4 6 6 7 8 7 3 4 8 11 6 7 3 2 2 1 3 4
13 14 13 11 12 19 8 9 9 5 2 4 4 4 6 5 13 15 24 15 1 4 3 3 4 4 5 3 0 6 3 9 9 7 6 3 6 7 4 1 4 6 5 6
13 13 16 12 18 18 13 10 9 12 4 3 6 17 9 10 13 15 16 19 12 3 3 3 4 3 3 1 1 4 7 6 7 4 4 6 3 6 1 4 5 6 7 7
12 12 15 16 17 11 4 1 1 4 7 2 4 4 3 3 6 11 12 10 5 3 3 3 5 2 5 5 4 4 10 6 4 3 5 3 3 4 3 2 6 8 7 6
12 13 18 18 11 5 2 2 1 5 7 2 4 5 2 1 3 2 3 6 3 4 3 3 5 4 6 2 4 3 8 8 6 3 2 4 2 1 3 9 11 11 8 6
14 15 16 8 3 3 3 4 4 7 2 2 2 4 3 7 2 3 4 3 5 6 4 3 4 2 2 4 5 3 6 6 4 4 1 2 5 7 7 7 7 7 6 5
16 15 6 1 0 0 1 5 6 10 2 1 2 3 3 4 3 2 5 5 5 4 4 5 4 3 5 5 6 9 7 3 4 1 4 6 4 6 7 7 8 7 6 5
15 3 2 0 2 7 9 1 1 2 2 2 3 2 3 3 2 5 3 4 3 3 5 3 4 3 2 2 4 6 5 4 3 1 2 2 4 5 8 8 8 9 9 6
5 4 1 5 6 3 2 2 2 2 3 3 3 4 4 3 4 3 4 2 2 3 3 3 4 3 3 4 5 4 3 1 1 3 5 6 8 9 9 10 10 11 11 9
4 5 4 3 2 1 1 2 1 3 2 2 3 4 3 4 4 2 1 1 1 0 2 1 2 2 3 4 3 3 2 1 2 4 4 4 5 6 7 8 8 9 8 6
1 2 1 1 1 2 3 5 2 4 4 3 4 6 3 3 2 1 2 2 1 2 0 2 1 3 3 3 3 3 3 2 0 0 2 3 4 6 6 7 8 7 5 2
1 2 3 1 1 2 3 2 2 2 3 7 7 4 3 2 2 2 1 0 1 1 2 3 2 6 6 4 3 3 3 2 3 3 4 5 6 6 7 7 7 6 5 2
1 1 1 3 2 3 2 2 3 3 4 4 4 4 3 3 3 1 1 2 3 3 3 1 3 7 6 5 4 3 2 2 3 4 5 6 7 6 6 8 8 6 5 3
0 1 1 3 1 2 1 2 3 1 3 3 2 3 3 3 2 2 3 2 4 2 2 1 7 8 6 5 4 4 3 1 3 3 5 5 7 7 7 7 9 8 7 5
2 3 3 2 3 4 2 2 2 1 2 2 3 3 2 4 3 2 2 3 1 1 1 3 6 8 7 6 4 3 2 2 3 2 4 5 6 6 8 8 12 11 8 6
Wind_Direction
354 351 352 355 356 351 353 327 69 344 50 73 65 42 317 305 335 354 85 86 99 139 143 141 135 127 116 164 146 101 59 103 137 145 66 323 251 219 212 243 183 248 319 121
353 353 351 354 357 360 333 345 310 330 332 82 50 9 26 353 12 22 29 96 360 155 129 126 119 134 21 165 156 154 168 120 117 148 196 177 220 192 185 103 83 203 225 124
351 354 354 354 355 354 354 309 244 356 52 31 49 10 14 324 112 329 5 109 134 140 119 55 136 124 47 190 10 90 102 117 291 188 90 124 193 197 192 193 201 167 236 326
350 355 357 356 356 358 13 9 62 355 91 86 54 247 332 319 343 352 328 140 246 166 142 129 139 142 116 134 159 101 140 112 124 169 132 175 215 201 198 206 204 211 126 235
352 357 0 1 2 7 57 19 357 333 90 309 238 103 120 332 340 290 177 197 150 190 177 220 177 164 182 173 171 166 98 121 129 213 195 230 249 233 216 221 232 246 258 278
352 357 2 5 7 21 36 357 320 306 1 330 230 103 355 18 331 163 284 195 148 159 171 172 346 135 162 166 164 158 157 148 160 200 154 287 261 231 214 209 210 216 223 232
353 353 358 1 8 18 34 358 309 309 269 299 46 350 335 315 343 300 314 302 285 93 101 117 103 91 96 123 104 171 155 125 100 260 252 232 62 133 214 215 217 217 243 253
356 353 0 5 4 12 24 14 343 339 279 329 283 346 328 305 289 250 282 34 16 170 198 122 131 140 161 96 78 180 204 147 122 271 244 304 236 196 173 184 195 217 232 255
355 355 347 350 359 350 3 14 10 335 312 169 323 294 307 321 331 278 37 47 46 126 171 188 215 198 186 174 156 84 152 243 215 181 267 257 51 144 198 223 129 159 212 247
357 352 340 337 331 342 341 317 5 342 299 274 258 222 283 288 251 282 298 347 192 269 187 211 220 226 241 185 190 173 173 176 212 217 257 277 248 145 164 202 108 152 201 242
348 354 346 338 353 356 333 312 312 354 294 275 244 256 234 266 243 228 29 239 187 185 214 213 183 230 205 192 198 181 181 185 192 204 217 251 149 135 217 77 111 235 259 232
343 347 1 318 321 325 320 286 293 276 243 280 256 253 260 254 253 345 295 316 265 264 228 237 163 193 186 188 213 193 205 206 187 205 216 306 194 97 139 264 273 268 245 220
338 339 340 333 302 308 286 273 284 291 275 278 261 258 287 239 231 227 233 243 324 91 359 290 232 238 183 185 216 179 225 205 237 184 222 230 224 222 259 157 177 236 259 281
333 331 333 329 315 328 327 276 275 232 309 287 285 252 248 267 224 215 223 246 143 25 351 255 221 229 202 217 122 209 170 164 211 243 249 221 240 230 160 290 300 287 275 253
327 337 333 324 322 318 307 280 264 237 185 283 291 306 299 249 240 219 215 225 249 289 313 276 212 165 172 168 222 224 185 181 197 226 205 223 143 156 193 288 299 301 296 278
324 333 329 325 326 320 322 278 17 163 213 298 289 321 250 231 204 216 207 197 195 175 185 254 279 295 208 191 216 231 200 191 213 206 172 220 280 283 209 259 308 303 284 272
321 329 327 326 322 294 211 307 130 194 195 245 285 307 288 166 144 146 187 199 216 212 202 249 285 217 179 238 223 225 198 188 160 130 167 246 222 360 303 302 297 284 267 260
321 318 323 324 317 251 257 260 238 227 223 236 293 271 286 173 151 168 161 161 191 204 218 226 247 221 181 236 219 185 157 145 171 176 46 329 309 298 292 296 286 267 252 241
316 322 330 221 169 242 276 299 288 217 257 294 251 293 306 163 195 206 188 192 176 203 212 213 171 247 205 216 178 182 175 170 132 174 305 305 281 307 300 302 297 265 263 246
325 358 38 92 7 315 309 239 217 204 193 223 261 267 263 275 214 197 205 204 184 173 224 205 195 252 78 83 76 119 125 115 123 244 255 288 276 294 309 299 291 279 267 258
360 8 14 326 314 306 231 252 240 176 237 205 244 244 271 221 236 212 200 190 204 239 152 215 201 236 126 130 105 81 86 85 223 252 274 273 277 295 304 303 295 281 264 244
310 289 312 321 320 266 289 282 275 242 302 296 314 316 268 279 242 281 220 246 221 325 320 256 254 93 113 137 116 89 65 83 240 227 257 277 288 301 293 300 304 301 275 258
112 105 46 1 11 340 13 343 341 320 348 352 323 319 287 285 288 285 332 311 12 314 302 250 290 112 133 127 123 93 53 59 115 350 308 327 337 355 338 334 341 350 28 52
30 61 23 42 136 221 219 225 259 300 287 312 315 285 278 296 282 293 260 103 321 271 254 250 172 173 151 132 115 127 76 65 65 39 15 10 18 341 346 355 348 358 7 343
259 110 228 211 280 257 255 283 289 243 262 289 293 275 250 268 278 255 279 209 237 223 236 241 170 154 151 151 148 138 115 42 39 27 18 14 6 357 355 359 355 359 2 10
26 223 216 218 295 271 266 243 261 258 306 287 230 271 279 253 272 223 222 216 235 260 238 144 148 154 157 160 165 162 135 74 36 23 12 3 6 3 350 354 9 2 360 352
288 260 251 234 276 242 234 226 247 359 319 295 304 265 279 305 251 256 225 223 266 305 255 171 164 166 164 152 148 143 111 74 44 30 19 11 7 7 17 11 356 354 355 342